TimeMDT,TemperatureF,Dew PointF,Humidity,Sea Level PressureIn,VisibilityMPH,Wind Direction,Wind SpeedMPH,Gust SpeedMPH,PrecipitationIn,Events,Conditions,WindDirDegrees,DateUTC
12:00 AM,19,17,86,29.94,,NNW,20.7,,,,,330,2012-10-02 06:00:00
12:00 AM,19.4,16.7,89,29.94,-9999.0,NNW,20.7,27.6,N/A,,Unknown,330,2012-10-02 06:00:00
1:00 AM,19.8,17.6,91,29.94,-9999.0,NNW,18.4,-,N/A,,Unknown,330,2012-10-02 07:00:00
2:00 AM,19.8,17.8,92,29.94,-9999.0,NNW,17.3,-,N/A,,Unknown,330,2012-10-02 08:00:00
3:00 AM,19.9,17.4,90,29.94,-9999.0,NNW,18.4,-,N/A,,Unknown,330,2012-10-02 09:00:00
4:00 AM,20.3,17.4,89,29.95,-9999.0,NNW,17.3,-,N/A,,Unknown,330,2012-10-02 10:00:00
5:00 AM,19.6,17.4,91,29.96,-9999.0,NNW,20.7,-,N/A,,Unknown,330,2012-10-02 11:00:00
6:00 AM,19,17,88,29.96,,NNW,18.4,,,,,340,2012-10-02 12:00:00
6:00 AM,19.4,17.1,91,29.96,-9999.0,NNW,18.4,24.2,N/A,,Unknown,340,2012-10-02 12:00:00
7:00 AM,19.6,16.7,89,29.97,-9999.0,NNW,18.4,24.2,N/A,,Unknown,330,2012-10-02 13:00:00
8:00 AM,19.9,17.4,90,29.96,-9999.0,NNW,15.0,21.9,N/A,,Unknown,340,2012-10-02 14:00:00
9:00 AM,20.7,15.3,80,29.96,-9999.0,North,20.7,-,N/A,,Unknown,10,2012-10-02 15:00:00
10:00 AM,19.4,14.9,83,29.96,-9999.0,North,20.7,28.8,N/A,,Unknown,10,2012-10-02 16:00:00
11:00 AM,20.3,16.0,83,29.96,-9999.0,North,17.3,24.2,N/A,,Unknown,10,2012-10-02 17:00:00
12:00 PM,21,17,79,29.96,,North,15.0,,,,,350,2012-10-02 18:00:00
12:00 PM,21.4,17.2,84,29.96,-9999.0,North,15.0,-,N/A,,Unknown,350,2012-10-02 18:00:00
1:00 PM,23.0,18.1,82,29.96,-9999.0,North,20.7,28.8,N/A,,Unknown,360,2012-10-02 19:00:00
2:00 PM,22.5,19.0,87,29.96,-9999.0,North,23.0,32.2,N/A,,Unknown,350,2012-10-02 20:00:00
3:00 PM,22.1,20.3,93,29.95,-9999.0,NNW,26.5,34.5,N/A,,Unknown,340,2012-10-02 21:00:00
4:00 PM,21.6,19.4,91,29.96,-9999.0,North,27.6,36.8,N/A,,Unknown,350,2012-10-02 22:00:00
5:00 PM,20.8,18.9,92,29.96,-9999.0,North,27.6,38.0,N/A,,Unknown,350,2012-10-02 23:00:00
6:00 PM,20,18,87,29.96,,North,27.6,,,,,350,2012-10-03 00:00:00
6:00 PM,19.9,17.8,91,29.96,-9999.0,North,27.6,39.1,N/A,,Unknown,350,2012-10-03 00:00:00
7:00 PM,19.8,17.8,92,29.96,-9999.0,North,25.3,33.4,N/A,,Unknown,350,2012-10-03 01:00:00
8:00 PM,20.3,18.1,91,29.96,-9999.0,North,26.5,32.2,N/A,,Unknown,350,2012-10-03 02:00:00
9:00 PM,20.1,18.1,92,29.95,-9999.0,North,24.2,29.9,N/A,,Unknown,360,2012-10-03 03:00:00
10:00 PM,20.1,17.6,90,29.95,-9999.0,North,26.5,34.5,N/A,,Unknown,350,2012-10-03 04:00:00
11:00 PM,19.8,17.8,92,29.95,-9999.0,North,21.9,29.9,N/A,,Unknown,350,2012-10-03 05:00:00